Погода в Добриче

Болгария     43°34′04″N   27°49′18″E
темп.,
°C
ветер,
м/с
пор.,
м/с
влажн.,
%
обл.,
%
осадки,
мм/ч
давл.,
гПа
погр.,
м
9 мая, вс
вс900:00+10с116090 0.0 102123
03:00+6ссв387384 0.0 1024163
06:00+5св33715 0.0 102539
09:00+11св34515 0.0 1027542
12:00+14ссв34445 0.0 10271620
15:00+15ссв334133 0.0 10272013
18:00+13ююв656116 0.0 1027613
21:00+7ююв48775 0.0 1028156
10 мая, пн
пн1000:00+6ю47780 0.0 1028119
03:00+6ю34810 0.0 102741
06:00+5ююв33791 0.0 102729
09:00+12юв47565 0.0 1027662
12:00+14юв56490 0.0 10271161
15:00+14юв55470 0.0 10261086
18:00+13юв55530 0.0 1024748
21:00+7юв34825 0.0 102555
11 мая, вт
вт1100:00+6юв34850 0.0 102443
03:00+5ююв22870 0.0 102320
06:00+5ююв22860 0.0 102213
09:00+12ююв34590 0.0 1021468
12:00+16юв44480 0.0 10201027
15:00+16юв43464 0.0 10181040
18:00+15юв43535 0.0 1017674
21:00+8ююв34784 0.0 101747
12 мая, ср
ср1200:00+7ю347973 0.0 101646
03:00+7ю337249 0.0 101435
06:00+7ю33662 0.0 101323
09:00+14ююв46540 0.0 1011358
12:00+17ююв67505 0.0 1010869
15:00+17ююв67520 0.0 1010906
18:00+14юв6862100 0.0 1009576
21:00+11юв61280100 0.0 1009376
13 мая, чт
чт1300:00+10юв6128660 0.0 1008352
03:00+8юв49941 0.0 1008186
06:00+8ю359483 0.0 100895
09:00+14юз347797 0.0 1008303
12:00+19з236873 0.0 1007758
15:00+22ю345749 0.0 10061552
18:00+20ююв45701 0.8 1006586
21:00+14ююв33886 1.3 100833